Simultaneous Nadir Overpasses (SNOs) Predictions

Prediction of SNOs between NOAA-19 and TERRA Satellite Orbit:

Table of predicted SNOs for the next 14.0 days since TLE Epoch: 4/30/2022
Index Date (NOAA-19) Time (NOAA-19) Lat,Lon (NOAA-19) SZA (NOAA-19 ) Date (TERRA) Time (TERRA) Lat,Lon (TERRA) SZA (TERRA ) Distance(km) Time Diff (sec)
1 04/30/2022 09:54:46 80.74, 67.03 67.76 04/30/2022 09:55:36 80.76, 67.17 67.81 3.22 50
2 04/30/2022 10:45:50 -80.74,-125.65 112.25 04/30/2022 10:45:04 -80.72,-125.61 112.27 1.83 46
3 05/02/2022 16:18:44 80.74, -28.68 67.12 05/02/2022 16:18:43 80.74, -28.81 67.11 2.61 1
4 05/04/2022 21:51:47 -80.75, 67.79 113.55 05/04/2022 21:52:23 -80.75, 67.78 113.54 0.22 36
5 05/04/2022 22:42:43 80.74,-124.78 66.46 05/04/2022 22:41:50 80.72,-124.89 66.41 3.05 53
6 05/07/2022 04:15:45 -80.75, -28.15 114.17 05/07/2022 04:15:29 -80.74, -28.04 114.17 2.01 16
7 05/09/2022 09:48:40 80.75, 68.73 65.24 05/09/2022 09:49:07 80.76, 68.74 65.27 1.91 27
8 05/09/2022 10:39:42 -80.74,-123.79 114.75 05/09/2022 10:38:35 -80.73,-123.96 114.80 3.06 67
9 05/11/2022 15:21:41 -80.75, 165.30 115.35 05/11/2022 15:22:46 -80.77, 165.44 115.29 3.38 65
10 05/11/2022 16:12:38 80.74, -27.15 64.67 05/11/2022 16:12:13 80.74, -27.29 64.64 2.56 25
11 05/13/2022 21:45:39 -80.76, 69.19 115.92 05/13/2022 21:45:52 -80.75, 69.33 115.91 2.87 13



Historial Predications of SNOs between NOAA-19 and TERRA
